www.pogodaiklimat.ru

Погода и климат >> Архив погоды >> Россия >> Якутия >> Хатырык-Хомо


ПОГОДА в Хатырык-Хомо

  • Прогноз погоды в Хатырык-Хомо
  • Монитор погоды в Хатырык-Хомо

АРХИВ ПОГОДЫ в Хатырык-Хомо

Время (UTC), дата Ветер
(напр.,м/с)
 
Видим.   Явления Облачность Т
(С)
Тd
(С)
f
(%)
Тe
(С)
Тes
(С)
Комфортность P
(гПа)
Po
(гПа)
Тmin
(С)
Tmax
(С)
R
(мм)
R24
(мм)
S
(см)
21 12.06 штиль 0 20 км слаб. ливневой дождь 10/10 600 м
[Cb cap]
+5.0 +4.8 99 +4 +4 1008.7 999.3
00 13.06 штиль 0 50 км {ливн. осадки} 10/10 600 м
[Cb cap]
+5.1 +4.6 97 +4 +4 1011.1 1001.7 +5.0 8
03 13.06 СЗ 2 50 км 10/10 600 м
[Cb cap]
+6.6 +3.5 81 +4 +4 1012.7 1003.3
06 13.06 СЗ 2 50 км 10/10 600 м
[Cb cap]
+8.4 +3.3 70 +7 +7 1013.5 1004.2
09 13.06 СЗ 1 50 км 10/10 1000 м
[Sc]
+8.3 +3.1 70 +8 +8 1015.1 1005.7
12 13.06 штиль 0 50 км 10/10 1000 м
[Sc]
+7.9 +2.7 70 +7 +7 1015.6 1006.2 +8.4
15 13.06 штиль 0 50 км 8/0
[Ac trans]
+3.0 +2.2 94 +2 +2 1016.0 1006.5
18 13.06 штиль 0 50 км 6/0
[Ac trans]
+2.3 +1.5 94 +1 +1 1016.7 1007.2
21 13.06 штиль 0 50 км 9/9 1000 м
[Sc]
+5.3 +3.1 86 +4 +5 1017.4 1007.9
00 14.06 штиль 0 50 км 6/6 1000 м
[Sc]
+11.1 +5.7 69 +11 +15 1017.7 1008.3 +2.3
03 14.06 штиль 0 50 км 1/0
[Ac trans]
+12.7 +3.6 54 +13 +29 опасность
простуды
1016.9 1007.7
06 14.06 штиль 0 50 км ясно +15.1 +3.8 47 +15 +29 опасность
простуды
1015.1 1005.9
09 14.06 штиль 0 50 км 6/0
[Ci fib]
+16.5 +2.6 39 +17 +21 1013.8 1004.7
12 14.06 штиль 0 50 км 3/0
[Ci fib]
+15.7 +2.3 40 +16 +16 1013.1 1004.0 +17.8
15 14.06 штиль 0 50 км 1/0
[Ac trans]
+6.6 +5.7 94 +6 +6 1013.1 1003.8
18 14.06 штиль 0 50 км 8/0
[Ac trans Ci fib]
+6.0 +5.3 95 +5 +5 1012.8 1003.4
21 14.06 В 1 50 км 8/0
[Ac trans Cs]
+9.5 +8.3 92 +9 +11 1012.6 1003.3
00 15.06 ЮВ 1 50 км 3/0
[Ci fib]
+16.0 +9.3 64 +17 +25 1012.3 1003.2 +6.0
03 15.06 В 1 50 км 3/0
[Ci fib]
+19.9 +8.7 48 +22 +36 комфорт 1010.6 1001.6
06 15.06 В 1 50 км 4/3 1000 м
[Cu med, cong Ci fib]
+22.2 +10.1 46 +24 +32 комфорт 1009.0 1000.2
09 15.06 ЮВ 1 50 км 3/3 1000 м
[Cu med, cong]
+22.7 +10.6 46 +25 +28 комфорт 1008.4 999.6
12 15.06 штиль 0 50 км ясно +21.3 +11.0 52 +23 +24 комфорт 1008.3 999.5 +24.9
15 15.06 штиль 0 50 км ясно +12.2 +11.1 93 +12 +12 1009.1 1000.0
18 15.06 штиль 0 50 км ясно +11.2 +10.6 96 +10 +10 1009.7 1000.6
21 15.06 штиль 0 50 км ясно +16.0 +12.4 79 +16 +18 1009.9 1000.9
00 16.06 штиль 0 50 км ясно +18.8 +12.0 65 +19 +30 1010.3 1001.3 +11.2
03 16.06 ЮВ 1 50 км ясно +24.5 +11.7 45 +26 +41 жарко 1010.3 1001.5
06 16.06 штиль 0 50 км ясно +27.0 +11.7 39 +28 +42 жарко 1009.5 1000.8
09 16.06 штиль 0 50 км 8/3 1000 м
[Sc Ci fib]
+27.2 +13.4 43 +29 +32 жарко 1009.3 1000.6
12 16.06 штиль 0 50 км 6/0
[Ci fib]
+23.0 +10.5 45 +25 +25 комфорт 1010.0 1001.2 +29.0
15 16.06 штиль 0 50 км 3/0
[Ci fib]
+13.3 +12.4 94 +13 +13 1014.3 1002.2
18 16.06 штиль 0 50 км 4/0
[Ci fib]
+12.6 +11.7 94 +12 +12 1012.1 1003.0
21 16.06 штиль 0 50 км ясно +17.7 +11.7 68 +18 +20 1012.4 1003.4
00 17.06 штиль 0 50 км ясно +19.6 +11.5 59 +21 +31 комфорт 1012.3 1003.3 +12.6
03 17.06 штиль 0 50 км ясно +27.2 +10.8 36 +28 +45 жарко 1011.0 1002.3
06 17.06 штиль 0 50 км 3/0
[Ci fib]
+28.8 +12.0 35 +30 +43 жарко 1010.0 1001.3
09 17.06 штиль 0 50 км ясно +28.4 +11.7 36 +29 +35 жарко 1009.0 1000.3
12 17.06 штиль 0 50 км ясно +23.1 +12.9 53 +26 +27 жарко 1008.8 1000.0 +30.8
15 17.06 СЗ 1 50 км ясно +21.2 +16.4 74 +25 +25 комфорт 1008.8 1000.0
18 17.06 СЗ 1 50 км ясно +19.1 +15.6 80 +22 +22 комфорт 1009.1 1000.1
21 17.06 штиль 0 50 км ясно +19.3 +14.7 75 +21 +23 комфорт 1009.3 1000.3
00 18.06 штиль 0 50 км ясно +22.0 +14.7 63 +25 +36 комфорт 1008.9 1000.1 +19.1
03 18.06 штиль 0 50 км 3/0
[Ci fib]
+27.3 +16.2 51 +31 +47 душно 1007.9 999.2
06 18.06 штиль 0 50 км 3/0
[Cs]
+29.4 +15.5 43 +32 +46 душно 1006.7 998.0
09 18.06 штиль 0 50 км 1/0
[Cs]
+30.1 +15.6 41 +33 +38 душно 1005.5 996.8
12 18.06 штиль 0 50 км ясно +25.6 +17.5 61 +30 +30 душно 1005.2 996.5 +32.7
15 18.06 штиль 0 50 км ясно +15.1 +14.2 94 +15 +15 1006.0 996.9
18 18.06 штиль 0 50 км ясно +11.1 +10.3 95 +10 +10 1006.3 997.2
21 18.06 штиль 0 50 км ясно +11.4 +7.7 78 +11 +13 1006.2 997.1
00 19.06 штиль 0 50 км ясно +22.3 +15.1 64 +26 +36 жарко 1006.6 997.8 +11.1
03 19.06 ЮВ 1 50 км ясно +26.9 +14.8 47 +29 +44 жарко 1006.5 997.8
06 19.06 штиль 0 50 км 8/0
[]
+28.0 +17.4 53 +32 +41 душно 1006.0 997.3
09 19.06 штиль 0 50 км 6/0
[Ci fib]
+27.7 +13.8 42 +30 +35 жарко 1005.7 997.0
12 19.06 штиль 0 50 км 1/0
[Ci fib]
+24.0 +13.2 51 +26 +27 жарко 1006.7 997.9 +29.8
15 19.06 штиль 0 50 км 1/0
[Ci fib]
+12.7 +11.8 94 +12 +12 1006.6 998.5

 

Местоположение метеостанции Хатырык-Хомо (Якутия, Россия): широта 63.95 долгота 124.80 высота над уровнем моря 77 м.

В архиве по умолчанию представлена погода в Хатырык-Хомо за последнюю неделю. Архивные данные за месяц целиком и за предыдущие месяцы, начиная с января 2011 года, Вы можете получить, выбрав интересующий диапазон дат из раскрывающегося списка и нажав кнопку "Ввод!".


*Определитесь, кто Вы:
робот инопланетянин человек

Внимание! Время в таблицах - всемирное. Для получения местного времени необходимо прибавить поправку, которая равна 9 ч.

Смотрите также архив погоды в соседних городах и на ближайших метеорологических станциях:

Погода в Сого-Хае (Якутия, Россия) (86 км)
Погода в Сангаре (Якутия, Россия) (127 км)
Погода в Бестяхской Звероферме (Якутия, Россия) (154 км)
Погода в Вилюйске (Якутия, Россия) (158 км)
Погода в Бердигестяхе (Якутия, Россия) (217 км)
Погода в Тонгулахе (Якутия, Россия) (226 км)
Погода в Батамае (Якутия, Россия) (231 км)
Погода в Верхневилюйске (Якутия, Россия) (233 км)
Погода в Сеген-Кюеле (Якутия, Россия) (268 км)
Погода в Намцах (Якутия, Россия) (276 км)

Пояснения к столбцам:

Ветер - указаны скорость ветра в м/с - средняя за 10 мин, порывы в срок и между сроками (в фигурных скобках) и направление, откуда дует ветер: С - северный, СВ - северо-восточный, В - восточный, ЮВ - юго-восточный, Ю - южный, ЮЗ - юго-западный, З - западный, СЗ - северо-западный.
Видимость - горизонтальная дальность видимости в метрах или километрах. При видимости от 1 до 10 км при отсутствии осадков обычно наблюдается дымка, при ухудшении видимости до 1 км и менее - туман. В сухую погоду видимость может ухудшаться дымом, пылью или мглою.
Явления - указаны атмосферные явления, наблюдавшиеся в срок или в последний час перед сроком; фигурными скобками обозначены явления, наблюдавшиеся между сроками (за 1-3 часа до срока); квадратными скобками обозначены град или гололедные отложения с указанием их диаметра в мм.
Облачность - указаны через наклонную черту общая и нижняя облачность в баллах и высота нижней границы облаков в метрах; квадратными скобками обозначены формы облаков: Ci - перистые, Cs - перисто-слоистые, Cc - перисто-кучевые, Ac - высококучевые, As - высокослоистые, Sc - слоисто-кучевые, Ns - слоисто-дождевые, Cu - кучевые, Cb - кучево-дождевые. Подробнее классификацию облаков см. в Атласе облаков (PDF).
T - Температура воздуха - температура, измеренная на высоте 2 м над землей.
Td - Температура точки росы - температура, при понижении до которой содержащийся в воздухе водяной пар достигнет насыщения.
f - Относительная влажность воздуха - влажноcть воздуха, измеренная на высоте 2 м над землей.
Te - Эффективная температура - температура, которую ощущает одетый по сезону человек в тени. Характеристика душности погоды. При расчете учитывается влияние влажности воздуха и скорости ветра на теплоощущения человека.
Tes - Эффективная температура на солнце - температура, которую ощущает человек, с поправкой на солнечный нагрев. Характеристика знойности погоды. Зависит от высоты солнца над горизонтом, облачности и скорости ветра. Ночью, в пасмурную погоду, а также при ветре 12 м/с и более поправка равна нулю.
P - Атмосферное давление - приведенное к уровню моря атмосферное давление.
Po - Атмосферное давление - измеренное на уровне метеостанции атмосферное давление.
Tmin - Минимальная температура - минимум температуры воздуха на высоте 2 м над землей.
Tmax - Максимальная температура - максимум температуры воздуха на высоте 2 м над землей.
R - Количество осадков - Количество выпавших осадков за период времени, мм. При наведении курсора мыши на число - период времени, за который выпало указанное количество осадков.
R24 - Количество осадков - Количество выпавших осадков за 24 часа, мм.
S - Снежный покров - Высота снежного покрова, см. При наведении курсора мыши на число - состояние снежного покрова и степень покрытия местности в баллах.